Regional Weather Roundup
Issued by NWS

Home | Current Version | Previous Version | Text Only | Print | Product List | Glossary Off
Versions: 1 2 3 4 5 6 7 8 9 10 11 12 13 14 15 16 17 18 19 20 21 22 23 24 25 26 27 28 29 30 31 32 33 34 35 36 37 38 39 40 41 42 43 44 45 46 47 48 49 50

000
ASUS45 KTFX 201404
RWRMT
MONTANA HOURLY WEATHER ROUNDUP
NATIONAL WEATHER SERVICE GREAT FALLS MT
704 AM MST SAT DEC 20 2014

NOTE: "FAIR" INDICATES FEW OR NO CLOUDS BELOW 12000 FEET WITH NO
SIGNIFICANT WEATHER AND/OR OBSTRUCTIONS TO VISIBILITY.

* THESE STATIONS ARE NOT UNDER NWS QUALITY CONTROL. THEY DO NOT
   REPORT WEATHER SUCH AS PRECIPITATION OR FOG.

MTZ001>007-043-201500-
WEST OF THE DIVIDE
CITY           SKY/WX    TMP DP  RH WIND       PRES   REMARKS
KALISPELL      MOCLDY    28  28 100 CALM      29.93F
MISSOULA       FOG       27  25  92 NW3       29.99S VSB 1/2
BUTTE          CLOUDY    21  16  81 E5        29.94F WCI  14
MULLAN PASS    FOG       25  23  92 VRB7      29.84F VSB 1    WCI  17
* ESSEX        N/A       29  28  96 N/A        N/A
* LINCOLN      N/A       25  21  85 N1         N/A
* LOOKOUT PASS N/A       28  28 100 S2         N/A
* POLSON       N/A       28  28 100 N/A        N/A
* RONAN APT    CLOUDY    32  30  92 N/A        N/A
* SEELEY LAKE  N/A       18  16  92 N/A        N/A
* THOMP F APT  CLOUDY    25  24  96 SE3        N/A
* YAAK HILL    N/A       34  31  89 N/A        N/A
$$

MTZ008-052>055-201500-
SOUTHWEST MONTANA
CITY           SKY/WX    TMP DP  RH WIND       PRES   REMARKS
BOZEMAN        CLOUDY    21  19  92 E7        29.96F WCI  12
DILLON         MOCLDY    27  19  72 S8        29.95F WCI  19
* W YELLOWSTON MOCLDY    26  24  92 SW3G11     N/A
* THREE FORKS  CLOUDY    28  28 100 N/A        N/A
* BOULDER HILL N/A       24  16  71 S6         N/A   WCI  17
* MONIDA PASS  N/A       24  24 100 SE8        N/A   WCI  15
* RAYNOLDS PAS N/A       24   9  53 S6         N/A   WCI  17
* WHITEHALL    N/A       27  22  81 S3G9       N/A
* WISE RIVER   N/A       19  17  92 W5         N/A   WCI  12
$$

MTZ009>010-012-014-046-048-049-054-201500-
EAST SLOPES AND CENTRAL MONTANA
CITY           SKY/WX    TMP DP  RH WIND       PRES   REMARKS
CUT BANK       PTCLDY    32  21  64 W14       29.80R WCI  22
GREAT FALLS    PTCLDY    30  21  69 SW15      29.86S WCI  19
HELENA         CLOUDY    30  21  69 CALM      29.95S
* DEARBORN     N/A       39  19  45 S4G11      N/A
* EAST GLACIER N/A       30  19  64 W15G21     N/A   WCI  19
* MONARCH      N/A       30  11  45 SW24G35    N/A   WCI  16
* PENDROY      N/A       30  15  54 S8         N/A   WCI  22
* ROGERS PASS  N/A       26  20  78 SE10G16    N/A   WCI  16
* SWEET GRASS  N/A       30  21  69 W15        N/A   WCI  19
$$

MTZ011-013-016-021-035-040-045-047-050-051-201500-
NORTH CENTRAL MONTANA
CITY           SKY/WX    TMP DP  RH WIND       PRES   REMARKS
HAVRE          CLOUDY    34  27  76 SW15      29.83R WCI  24
LEWISTOWN      CLEAR     30  19  64 SW15      29.87R WCI  19
* N BAR RANCH  CLEAR     34  12  40 NW15      29.86R WCI  24
* CHESTER      N/A       31  21  66 W9         N/A   WCI  23
* DENTON       N/A       28  20  72 SW9        N/A   WCI  19
* GEYSER       N/A       29  16  58 W9         N/A   WCI  21
* JUDITH GAP   N/A       31  17  56 SW17G22    N/A   WCI  20
* LOMA         N/A       33  22  64 W12        N/A   WCI  24
$$

MTZ017>020-022>027-061-062-201500-
NORTHEAST MONTANA
CITY           SKY/WX    TMP DP  RH WIND       PRES   REMARKS
GLASGOW        PTCLDY    25  21  85 SE3       29.81S
GLENDIVE       CLEAR     25  21  85 SE7       29.85S WCI  17
JORDAN         CLEAR     25  21  85 CALM      29.84S
SIDNEY         MOCLDY    27  23  85 S5        29.86S WCI  21
WOLF POINT     PTCLDY    19  16  88 W5        29.84R WCI  12
* BEAVER HILL  N/A       32  24  72 SW9G15     N/A   WCI  24
* CIRCLE       N/A       29  25  85 N/A        N/A
* LINDSAY DVD  N/A       32  28  85 W9         N/A   WCI  24
* NAVAJO       N/A       31  29  92 SW8        N/A   WCI  24
* SACO         N/A       30  27  89 SE8        N/A   WCI  22
$$

MTZ028>042-056>058-201500-
SOUTHCENTRAL AND SOUTHEAST MONTANA
CITY           SKY/WX    TMP DP  RH WIND       PRES   REMARKS
BAKER          PTCLDY    30  25  82 NW3       29.87R
BILLINGS       FAIR      30  19  64 SW16      29.91R WCI  19
LIVINGSTON     MOCLDY    37  21  52 W16       29.92F WCI  28
MILES CITY     CLOUDY    28  25  89 CALM      29.88S
* LAUREL APT   CLEAR     27  12  53 SW7        N/A   WCI  19
* ROUNDUP APT  PTCLDY    37  19  48 W16G24     N/A   WCI  28
* ALZADA       N/A       34  25  70 E1         N/A
* HYSHAM       N/A       31  21  66 W2G8       N/A
* LAME DEER    N/A       34  23  64 NW9G14     N/A   WCI  27
* REED POINT   N/A       30  24  78 W2G8       N/A
* ROSCOE HILL  N/A       36   9  32 E1G17      N/A
$$

REGIONAL REPORTS...DAKOTAS
CITY           SKY/WX    TMP DP  RH WIND       PRES   REMARKS
WILLISTON      CLOUDY    21  19  92 CALM      29.84S
DICKINSON      CLOUDY    30  25  82 S6        29.82S WCI  24
BEACH          CLOUDY    32  27  82 W8        29.85R WCI  25
CROSBY         CLOUDY    18  18 100 E5        29.83F WCI  11
WATFORD CITY   PTCLDY    21  19  92 CALM      29.82S
BISMARCK       CLOUDY    16  12  84 E6        29.92F WCI   7
GRAND FORKS    CLOUDY    27  27 100 S10       30.00S WCI  18
FARGO          CLOUDY    30  27  89 S10       30.03R WCI  21
BUFFALO SD     CLOUDY    36  27  70 W8        29.79F WCI  30
RAPID CITY     CLOUDY    36  23  59 NW8       29.90R WCI  30
$$

REGIONAL REPORTS...WYOMING/IDAHO/WASHINGTON
CITY           SKY/WX    TMP DP  RH WIND       PRES   REMARKS
GILLETTE       CLOUDY    28  25  89 S6        29.92R WCI  21
SHERIDAN       PTCLDY    23  16  74 CALM      29.91S
CODY           MOCLDY    37  19  48 SW3       29.91R
YELLOWSTONE LA MOCLDY    25  21  85 CALM      30.01R
SALMON         CLOUDY    27  25  92 CALM      29.99F VSB 1
MULLAN PASS    FOG       25  23  92 VRB7      29.84S VSB 1    WCI  17
SAND POINT     CLOUDY    36  36 100 NE3       29.91F
SPOKANE        CLOUDY    36  34  92 CALM      29.88F

$$



USA.gov is the U.S. government's official web portal to all federal, state and local government web resources and services.